Powrót do katalogu

FENGYUN 1C DEB

AktywnyPO
NORAD 37902·DEBRIS·🇨🇳 China

Wystrzelony May 10, 1999 z Taiyuan Satellite Launch Center

Loading…

Następne Przeloty (najbliższe 24 godziny)

TLE

ŚwieżeSource: Space-Track

Epoka: Sep 14, 2026, 11:38 UTC

1 37902U 99025ENB 26257.48474028  .00001281  00000-0  14194-2 0  9998
2 37902  98.6728  89.2749 0319121 315.2839  42.2969 13.53564875667064

Śledź FENGYUN 1C DEB w czasie rzeczywistym z AllMySat

Download on the App Store